sat.trackr.live / text

‹ back to catalog

GAOFEN-11 01

NORAD 43585 · 2018-063A

PAYLOAD ACTIVE UNKNOWN

§ Identity

Operator
Country
PRC
Launch date
2018-07-31
Launch site
TAISC
Launch vehicle
Mass (kg)
RCS (m²)

Purposes: earth_obs

External: N2YO · Heavens-Above · Gunter

§ Orbital elements

Epoch: 2026-05-25T04:46:30.260640Z

Period
92.63 min
Inclination
97.1306°
Eccentricity
0.0005311
Mean motion
15.54537751 rev/d
Perigee alt
399.9 km
Apogee alt
407.1 km
Semi-major
6,781.6 km
B*
2.4567e-4
RAAN
212.1536°
Arg perigee
71.3778°
Mean anomaly
288.8052°
Rev number
43,677

§ Raw data

GAOFEN-11 011 43585U 18063A   26145.19896135  .00016116  00000+0  24567-3 0  99942 43585  97.1306 212.1536 0005311  71.3778 288.8052 15.54537751436779

JSON: /api/v1/satellites/43585 · /tle

For live sub-satellite position, see the globe view (requires WebGL).

§ Visibility from observer

Set your observer location to see the next 7 days of passes ≥ 10°. The values pass through the URL so the page stays shareable.

No JS? Fill the form by hand. The geolocation button needs JavaScript.